Regional Weather Roundup
Issued by NWS

Home | Current Version | Previous Version | Text Only | Print | Product List | Glossary Off
Versions: 1 2 3 4 5 6 7 8 9 10 11 12 13 14 15 16 17 18 19 20 21 22 23 24 25 26 27 28 29 30 31 32 33 34 35 36 37 38 39 40 41 42 43 44 45 46 47 48 49 50

000
ASUS43 KLMK 161802
RWRKY
KENTUCKY REGIONAL WEATHER ROUNDUP
NATIONAL WEATHER SERVICE LOUISVILLE KY
100 PM EST SAT DEC 16 2017

NOTE "FAIR" INDICATES FEW OR NO CLOUDS BELOW 12,000 FEET
WITH NO SIGNIFICANT WEATHER AND/OR OBSTRUCTIONS TO VISIBILITY.

KYZ001>023-026-027-061>063-070>075-161900-
WESTERN AND SOUTH CENTRAL KENTUCKY

CITY           SKY/WX    TMP DP  RH WIND       PRES   REMARKS
PADUCAH        SUNNY     51  29  42 SW15G24   30.14F
HENDERSON      SUNNY     49  32  52 SW21G26   30.11F
OWENSBORO      SUNNY     49  31  49 SW15      30.13F
HOPKINSVILLE   SUNNY     50  29  44 SW12G21   30.17F
BOWLING GREEN  SUNNY     50  31  48 SW13G23   30.19F
GLASGOW        NOT AVBL
$$

KYZ024-025-028>034-038-045-046-053-161900-
NORTH CENTRAL KENTUCKY

CITY           SKY/WX    TMP DP  RH WIND       PRES   REMARKS
LOUISVILLE/SDF MOSUNNY   50  28  42 SW18G29   30.11F
LOUISVILLE/LOU SUNNY     49  30  48 SW20G31   30.12F
FORT KNOX      SUNNY     49  29  46 SW16G25   30.11F
$$

KYZ035>037-039>044-047>052-055>060-089>105-161900-
NORTHEAST KENTUCKY

CITY           SKY/WX    TMP DP  RH WIND       PRES   REMARKS
LEXINGTON      SUNNY     48  29  47 SW18G31   30.13F
COVINGTON      SUNNY     47  29  49 SW20G26   30.06F
FRANKFORT      SUNNY     49  27  42 SW17G26   30.11F
$$

KYZ054-064>069-076>088-106>120-161900-
SOUTHEAST KENTUCKY

CITY           SKY/WX    TMP DP  RH WIND       PRES   REMARKS
JACKSON        SUNNY     47  27  45 VRB3G20   30.15F
LONDON         SUNNY     47  27  45 SW14G22   30.18F
SOMERSET       NOT AVBL
MIDDLESBORO    SUNNY     44  27  52 S12       30.22F
MONTICELLO     CLEAR     48  30  49 SW17G24   30.21F
$$




USA.gov is the U.S. government's official web portal to all federal, state and local government web resources and services.